EI9EF Weather Reports


Display with metric or nautical units.
time (UTC)temp
F
wind
direction
speed
MPH
gust
MPH
rain 1hr
in
rain 24hr
in
rain mn
in
humidity
%
barometer
mb
20180716161304 61 176 4.0 10.0 0.00 0.75 0.04 75 1012.8
20180716155804 62 209 3.0 11.0 0.00 0.75 0.04 73 1012.8
20180716154300 63 236 4.0 10.0 0.00 0.75 0.04 73 1012.7
20180716152800 63 244 3.0 10.0 0.00 0.75 0.04 74 1012.6
20180716151301 64 273 8.0 14.0 0.00 0.75 0.04 75 1012.7
20180716145758 59 288 6.0 12.0 0.00 0.76 0.04 83 1012.8
20180716144300 59 293 9.0 14.0 0.00 0.76 0.04 81 1012.8
20180716142756 61 306 9.0 17.0 0.00 0.76 0.04 76 1012.9
20180716141256 64 313 5.0 10.0 0.00 0.76 0.04 70 1012.9
20180716135753 65 203 7.0 14.0 0.00 0.76 0.04 60 1012.9
20180716134249 65 214 10.0 18.0 0.00 0.76 0.04 67 1012.9
20180716132747 63 176 8.0 12.0 0.00 0.76 0.04 69 1013.0
20180716131247 62 168 8.0 11.0 0.00 0.76 0.04 72 1013.0
20180716125739 62 188 10.0 13.0 0.00 0.80 0.04 71 1013.1
20180716124237 61 228 9.0 13.0 0.00 0.80 0.04 70 1013.1
20180716122736 61 237 6.0 14.0 0.00 0.80 0.04 73 1013.1
20180716121234 59 252 8.0 14.0 0.00 0.80 0.04 76 1013.0
20180716115733 59 239 8.0 16.0 0.00 0.85 0.04 80 1013.2
20180716114232 60 237 12.0 17.0 0.00 0.85 0.04 79 1013.3
20180716112731 59 252 10.0 18.0 0.00 0.85 0.04 81 1013.2
20180716111232 60 241 8.0 15.0 0.00 0.85 0.04 78 1013.2
20180716105727 62 221 5.0 11.0 0.00 0.86 0.04 76 1013.1
20180716104227 61 193 3.0 9.0 0.00 0.86 0.04 81 1013.0
20180716102722 58 247 0.0 3.0 0.00 0.86 0.04 87 1013.0
20180716101226 57 269 1.0 7.0 0.00 0.86 0.04 88 1013.0
20180716095726 58 253 3.0 10.0 0.00 0.86 0.04 84 1013.1
20180716094220 60 223 7.0 12.0 0.00 0.86 0.04 83 1013.0
20180716092718 61 172 9.0 14.0 0.00 0.86 0.04 84 1012.8
20180716091214 60 204 6.0 11.0 0.00 0.86 0.04 87 1012.9
20180716085711 58 201 7.0 14.0 0.00 0.90 0.04 87 1012.8
20180716084213 58 210 10.0 13.0 0.00 0.90 0.04 86 1012.8
20180716082714 58 199 9.0 12.0 0.00 0.90 0.04 87 1012.8
20180716081211 57 215 7.0 11.0 0.00 0.90 0.04 88 1012.8
20180716075708 57 224 8.0 13.0 0.00 0.93 0.04 89 1012.8
20180716074223 58 205 8.0 14.0 0.00 0.93 0.04 88 1012.9
20180716072705 57 203 3.0 9.0 0.00 0.93 0.04 90 1012.9
20180716071202 56 219 3.0 10.0 0.00 0.93 0.04 91 1013.0
20180716065701 56 203 3.0 7.0 0.00 0.97 0.04 92 1012.9
20180716064200 56 263 3.0 7.0 0.00 0.97 0.04 93 1012.9
20180716062700 54 270 2.0 4.0 0.00 0.97 0.04 94 1012.8
20180716061155 54 303 2.0 6.0 0.00 0.97 0.04 94 1012.7
20180716055654 54 271 0.0 5.0 0.02 1.06 0.04 94 1012.7
20180716054152 52 276 0.0 4.0 0.04 1.06 0.04 94 1012.5
20180716052651 53 260 3.0 4.0 0.04 1.06 0.04 93 1012.5
20180716051151 53 257 3.0 6.0 0.04 1.06 0.04 94 1012.5
20180716045646 53 278 5.0 10.0 0.02 1.19 0.02 93 1012.5
20180716044143 54 240 4.0 8.0 0.00 1.17 0.00 94 1012.5
20180716042644 54 251 3.0 6.0 0.00 1.17 0.00 94 1012.5
20180716041142 54 235 5.0 8.0 0.00 1.17 0.00 94 1012.5
20180716035643 54 233 5.0 7.0 0.00 1.39 0.00 94 1012.4
20180716034139 54 255 4.0 9.0 0.00 1.39 0.00 94 1012.4
20180716032639 54 257 4.0 7.0 0.00 1.39 0.00 94 1012.2
20180716031139 54 259 4.0 8.0 0.00 1.39 0.00 94 1012.3
20180716025639 53 264 5.0 8.0 0.00 1.49 0.00 94 1012.3
20180716024139 53 265 4.0 7.0 0.00 1.49 0.00 94 1012.3
20180716022637 52 261 3.0 7.0 0.00 1.49 0.00 93 1012.3
20180716021136 53 259 4.0 8.0 0.00 1.49 0.00 93 1012.2
20180716015634 53 235 5.0 9.0 0.00 1.52 0.00 93 1012.2
20180716014129 54 240 6.0 8.0 0.00 1.52 0.00 93 1012.3
20180716012624 55 242 2.0 6.0 0.00 1.52 0.00 94 1012.1
20180716011127 55 228 3.0 6.0 0.00 1.52 0.00 94 1012.2
20180716005624 55 227 4.0 7.0 0.00 1.52 0.00 94 1012.2
20180716004121 55 231 5.0 9.0 0.00 1.52 0.00 94 1012.1
20180716002618 55 248 4.0 7.0 0.00 1.52 0.00 94 1012.1
20180716001117 55 238 2.0 6.0 0.00 1.52 0.00 94 1012.1
20180715235619 55 240 3.0 6.0 0.00 1.52 0.00 94 1012.1
20180715234114 55 242 3.0 6.0 0.00 1.52 0.00 94 1012.0
20180715232612 56 245 2.0 4.0 0.00 1.52 0.00 94 1012.1
20180715231112 56 245 0.0 2.0 0.00 1.52 0.00 95 1011.9
20180715225610 56 245 1.0 4.0 0.00 1.52 1.52 94 1012.1
20180715224108 56 245 0.0 2.0 0.00 1.52 1.52 94 1011.9
20180715222607 56 245 1.0 3.0 0.03 1.52 1.52 94 1012.0
20180715221105 56 253 4.0 10.0 0.06 1.52 1.52 94 1011.8
20180715215606 56 292 9.0 15.0 0.11 1.54 1.52 94 1011.7
20180715214104 56 288 9.0 17.0 0.16 1.54 1.52 94 1011.4
20180715212604 56 299 11.0 18.0 0.21 1.51 1.49 94 1011.1
20180715211102 56 317 9.0 15.0 0.27 1.47 1.45 94 1011.1
20180715205603 56 317 11.0 17.0 0.35 1.42 1.40 94 1010.9
20180715204100 56 326 9.0 15.0 0.38 1.38 1.36 94 1010.9
20180715202600 56 306 11.0 17.0 0.35 1.30 1.28 93 1010.8
20180715201057 57 332 11.0 15.0 0.35 1.20 1.18 93 1010.8
20180715195553 57 293 8.0 13.0 0.24 1.07 1.05 93 1010.9
20180715194049 58 328 13.0 17.0 0.17 1.00 0.98 93 1010.6
20180715192550 59 317 6.0 9.0 0.11 0.94 0.92 93 1010.6
20180715191046 59 319 6.0 14.0 0.02 0.85 0.83 92 1010.6
20180715185544 60 322 7.0 13.0 0.00 0.83 0.81 91 1010.5
20180715184041 60 326 5.0 9.0 0.00 0.83 0.81 91 1010.5
20180715182538 61 318 11.0 20.0 0.00 0.83 0.81 88 1010.5
20180715181041 65 186 2.0 9.0 0.00 0.83 0.81 89 1010.4
20180715175536 65 162 4.0 8.0 0.00 0.83 0.81 89 1010.4
20180715174034 65 188 3.0 6.0 0.00 0.83 0.81 89 1010.5
20180715172533 65 206 3.0 12.0 0.00 0.83 0.81 89 1010.5
20180715171035 65 197 7.0 17.0 0.00 0.83 0.81 88 1010.5
20180715165532 65 186 7.0 12.0 0.00 0.83 0.81 89 1010.7
20180715164031 64 168 8.0 16.0 0.00 0.83 0.81 89 1010.7